Terug naar catalogus

BREEZE-M DEB

ActiefHEO
NORAD 36963·DEBRIS·🇷🇺 Russia

Gelanceerd Feb 28, 2006 vanaf Baikonur Cosmodrome

Loading…

Volgende Passages (komende 24 uur)

TLE

VersSource: Space-Track

Epoch: Sep 13, 2026, 10:21 UTC

1 36963U 06006CV  26256.43168012  .00002629  00000-0  15748-2 0  9991
2 36963  51.5896 335.6659 4721563  94.6600 318.7358  5.95458272 37409

Volg BREEZE-M DEB in realtime met AllMySat

Download on the App Store